Weather History for KEXX - January, 2013

Change the Weather History Date:

Tuesday, January 15, 2013

  Actual Average (KINT) Record (KINT)
Temperature  
Mean Temperature 50 °F -  
Max Temperature 59 °F 45 °F 68 °F (2007)
Min Temperature 40 °F 29 °F 11 °F (1969)
Degree Days  
Heating Degree Days 16    
Moisture  
Dew Point 44 °F    
Average Humidity 100    
Maximum Humidity 100    
Minimum Humidity 100    
Precipitation  
Precipitation 0.05 in - - ()
Sea Level Pressure  
Sea Level Pressure 30.15 in    
Wind  
Wind Speed 5 mph (NE)    
Max Wind Speed 10 mph    
Max Gust Speed 20 mph    
Visibility 4 miles    
Events Rain    
Averages and records for this station are not official NWS values.
T = Trace of Precipitation, MM = Missing Value Source: NWS Daily Summary

Daily Weather History Graph

Daily Weather History Graph

Search for Another Location

Airport or City:

Trip Planner

Search our weather history database for the weather conditions in past years. The results will help you decide how hot, cold, wet, or windy it might be!

Date:

Astronomy

Jan. 15, 2013 Rise Set
Actual Time 7:30 AM EST 5:31 PM EST
Civil Twilight 7:02 AM EST 5:59 PM EST
Nautical Twilight 6:31 AM EST 6:30 PM EST
Astronomical Twilight 6:00 AM EST 7:01 PM EST
Moon 9:45 AM EST (1/15) 10:08 PM EST (1/15)
Length of Visible Light 10h 56m
Length of Day
10h 00m
Waxing Crescent, 19% of the Moon is Illuminated
Jan 15
Waxing Crescent
Jan 18
First Quarter
Jan 26
Full
Feb 3
Last Quarter
Feb 10
New

Hourly Weather History & Observations

Time (EST) Temp. Windchill Dew Point Humidity Pressure Visibility Wind Dir Wind Speed Gust Speed Precip Events Conditions
12:15 AM 59.2 °F - 59.2 °F 100% 30.14 in 5.0 mi NNW 3.5 mph - N/A   Overcast
12:35 AM 56.8 °F - 56.8 °F 100% 30.16 in 10.0 mi North 4.6 mph - N/A   Overcast
12:55 AM 55.2 °F - 55.2 °F 100% 30.15 in 10.0 mi NNE 6.9 mph 17.3 mph N/A Rain Rain
1:15 AM 52.3 °F - 52.3 °F 100% 30.16 in 7.0 mi North 9.2 mph 19.6 mph N/A Rain Light Rain
1:35 AM 50.9 °F - 50.9 °F 100% 30.17 in 5.0 mi NNE 8.1 mph - N/A Rain Heavy Rain
1:55 AM 49.5 °F - 49.5 °F 100% 30.17 in 5.0 mi NNE 8.1 mph - N/A   Drizzle
2:15 AM 48.7 °F - 48.7 °F 100% 30.19 in 4.0 mi NNE 5.8 mph - 0.01 in Rain Heavy Rain
2:35 AM 47.5 °F - 47.5 °F 100% 30.17 in 4.0 mi NE 8.1 mph 18.4 mph 0.01 in Rain Light Rain
3:15 AM 46.6 °F - 46.6 °F 100% 30.16 in 5.0 mi ENE 10.4 mph 16.1 mph N/A   Light Drizzle
3:35 AM 46.4 °F 43.5 °F 46.4 °F 100% 30.15 in 4.0 mi ENE 5.8 mph - N/A   Overcast
3:55 AM 46.2 °F 41.2 °F 46.2 °F 100% 30.14 in 4.0 mi ENE 10.4 mph - N/A   Drizzle
4:15 AM 45.9 °F 43.6 °F 45.9 °F 100% 30.14 in 5.0 mi ENE 4.6 mph - 0.01 in   Light Drizzle
4:35 AM 45.7 °F 41.0 °F 45.7 °F 100% 30.13 in 10.0 mi ENE 9.2 mph 16.1 mph 0.01 in   Overcast
4:55 AM 45.7 °F 42.0 °F 45.7 °F 100% 30.13 in 10.0 mi ENE 6.9 mph - 0.01 in   Overcast
5:15 AM 45.7 °F 43.4 °F 45.7 °F 100% 30.13 in 7.0 mi NE 4.6 mph - N/A   Drizzle
5:55 AM 45.1 °F 42.0 °F 45.1 °F 100% 30.12 in 4.0 mi NE 5.8 mph - N/A   Drizzle
6:15 AM 45.0 °F 43.5 °F 45.0 °F 100% 30.12 in 5.0 mi NE 3.5 mph - N/A   Drizzle
6:35 AM 44.8 °F 43.3 °F 44.8 °F 100% 30.14 in 3.0 mi NNE 3.5 mph - N/A   Drizzle
6:55 AM 44.6 °F 43.1 °F 44.6 °F 100% 30.14 in 4.0 mi NE 3.5 mph - 0.01 in   Drizzle
7:15 AM 44.6 °F 40.2 °F 44.6 °F 100% 30.15 in 4.0 mi ENE 8.1 mph - N/A   Heavy Drizzle
7:35 AM 44.2 °F - 44.2 °F 100% 30.16 in 4.0 mi Calm Calm - 0.01 in   Drizzle
7:55 AM 44.1 °F 42.5 °F 44.1 °F 100% 30.17 in 7.0 mi NE 3.5 mph - 0.01 in   Light Drizzle
8:15 AM 43.9 °F 41.3 °F 43.9 °F 100% 30.18 in 10.0 mi NNE 4.6 mph - N/A   Overcast
8:35 AM 43.9 °F 42.3 °F 43.9 °F 100% 30.20 in 10.0 mi NNE 3.5 mph - N/A   Overcast
8:55 AM 43.9 °F 42.3 °F 43.9 °F 100% 30.21 in 10.0 mi NNE 3.5 mph - N/A   Overcast
9:15 AM 44.1 °F 42.5 °F 44.1 °F 100% 30.20 in 4.0 mi ENE 3.5 mph - 0.01 in   Overcast
9:35 AM 44.2 °F 42.7 °F 44.2 °F 100% 30.21 in 5.0 mi NE 3.5 mph - 0.01 in   Overcast
9:55 AM 44.4 °F 40.5 °F 44.4 °F 100% 30.21 in 4.0 mi NE 6.9 mph - 0.01 in   Overcast
10:15 AM 44.6 °F - 44.6 °F 100% 30.21 in 4.0 mi Calm Calm - N/A   Overcast
10:35 AM 44.6 °F 41.4 °F 44.6 °F 100% 30.20 in 2.5 mi NE 5.8 mph - N/A   Overcast
10:55 AM 44.4 °F 42.9 °F 44.4 °F 100% 30.20 in 3.0 mi NE 3.5 mph - N/A   Overcast
11:15 AM 44.2 °F 42.7 °F 44.2 °F 100% 30.19 in 3.0 mi NE 3.5 mph - N/A   Overcast
11:35 AM 44.2 °F 41.8 °F 44.2 °F 100% 30.19 in 2.0 mi ENE 4.6 mph - N/A   Light Drizzle
11:55 AM 44.2 °F 38.8 °F 44.2 °F 100% 30.18 in 1.2 mi ENE 10.4 mph - N/A Rain Light Rain
12:15 PM 44.1 °F 41.5 °F 44.1 °F 100% 30.18 in 1.5 mi NE 4.6 mph - N/A Rain Light Rain
12:35 PM 43.9 °F 42.3 °F 43.9 °F 100% 30.18 in 1.5 mi NE 3.5 mph - N/A   Drizzle
12:55 PM 44.1 °F 40.8 °F 44.1 °F 100% 30.16 in 1.8 mi NE 5.8 mph - N/A Rain Light Rain
1:15 PM 43.7 °F 40.3 °F 43.7 °F 100% 30.15 in 2.0 mi NE 5.8 mph - N/A Rain Light Rain
1:35 PM 43.7 °F 40.3 °F 43.7 °F 100% 30.14 in 1.8 mi NE 5.8 mph - N/A   Overcast
1:55 PM 43.2 °F 41.5 °F 43.2 °F 100% 30.14 in 1.8 mi NE 3.5 mph - N/A   Overcast
2:15 PM 43.2 °F 41.5 °F 43.2 °F 100% 30.14 in 1.5 mi NE 3.5 mph - N/A   Overcast
2:35 PM 42.8 °F 40.1 °F 42.8 °F 100% 30.14 in 2.0 mi NE 4.6 mph - N/A   Light Drizzle
2:55 PM 42.4 °F 40.7 °F 42.4 °F 100% 30.14 in 1.5 mi NNE 3.5 mph - N/A   Overcast
3:15 PM 41.9 °F 39.0 °F 41.9 °F 100% 30.13 in 1.2 mi NNE 4.6 mph - N/A   Overcast
3:35 PM 41.9 °F 36.3 °F 41.9 °F 100% 30.13 in 2.0 mi ENE 9.2 mph - N/A   Overcast
3:55 PM 41.4 °F 36.8 °F 41.4 °F 100% 30.14 in 3.0 mi NE 6.9 mph - N/A   Overcast
4:15 PM 41.2 °F 39.2 °F 41.2 °F 100% 30.14 in 3.0 mi NE 3.5 mph - N/A   Overcast
4:35 PM 41.0 °F - 41.0 °F 100% 30.15 in 4.0 mi Calm Calm - N/A   Overcast
4:55 PM 41.0 °F 39.0 °F 41.0 °F 100% 30.14 in 2.5 mi NE 3.5 mph - N/A   Overcast
5:15 PM 40.5 °F 37.3 °F 40.5 °F 100% 30.14 in 3.0 mi NNE 4.6 mph - N/A   Overcast
5:35 PM 40.3 °F 37.1 °F 40.3 °F 100% 30.16 in 3.0 mi NNE 4.6 mph - N/A   Overcast
5:55 PM 40.1 °F 36.9 °F 40.1 °F 100% 30.15 in 4.0 mi NNE 4.6 mph - N/A   Overcast
6:15 PM 40.1 °F 36.9 °F 40.1 °F 100% 30.13 in 3.0 mi NE 4.6 mph - N/A   Overcast
6:35 PM 40.1 °F 36.9 °F 40.1 °F 100% 30.13 in 3.0 mi NE 4.6 mph - N/A   Overcast
6:55 PM 40.1 °F - 40.1 °F 100% 30.13 in 2.5 mi Calm Calm - N/A   Overcast
7:15 PM 40.3 °F 38.2 °F 40.3 °F 100% 30.14 in 2.0 mi NNE 3.5 mph - N/A   Overcast
7:35 PM 40.3 °F 38.2 °F 40.3 °F 100% 30.13 in 2.0 mi NE 3.5 mph - N/A   Overcast
7:55 PM 40.1 °F - 40.1 °F 100% 30.13 in 2.0 mi Calm Calm - N/A   Overcast
8:15 PM 40.3 °F 38.2 °F 40.3 °F 100% 30.13 in 1.8 mi NNE 3.5 mph - N/A   Overcast
8:35 PM 40.1 °F 38.0 °F 40.1 °F 100% 30.12 in 1.5 mi NNE 3.5 mph - N/A   Overcast
8:55 PM 40.1 °F 36.1 °F 40.1 °F 100% 30.10 in 1.5 mi ENE 5.8 mph - N/A   Overcast
9:15 PM 40.3 °F 38.2 °F 40.3 °F 100% 30.10 in 1.8 mi NE 3.5 mph - N/A   Overcast
9:35 PM 40.3 °F - 40.3 °F 100% 30.11 in 1.8 mi Calm Calm - N/A   Drizzle
9:55 PM 40.3 °F - 40.3 °F 100% 30.10 in 1.8 mi Calm Calm - N/A   Overcast
10:15 PM 40.3 °F - 40.3 °F 100% 30.09 in 1.8 mi Calm Calm - N/A   Overcast
10:35 PM 40.3 °F - 40.3 °F 100% 30.08 in 1.5 mi Calm Calm - N/A   Overcast
10:55 PM 40.3 °F 38.2 °F 40.3 °F 100% 30.08 in 1.8 mi NE 3.5 mph - N/A   Overcast
11:15 PM 40.3 °F - 40.3 °F 100% 30.08 in 2.0 mi Calm Calm - N/A   Overcast
11:35 PM 40.5 °F - 40.5 °F 100% 30.08 in 2.0 mi Calm Calm - N/A   Overcast
11:55 PM 40.5 °F - 40.5 °F 100% 30.07 in 1.5 mi Calm Calm - N/A   Overcast